Temp
11 11 12 11 11 11 10 10 10 10 10 10 10 9 10 9 9 9 8 8 8 8 8 8 8 8 8 8 8 8 8 9
11 11 11 11 11 11 10 10 10 9 9 9 10 9 9 9 9 9 9 8 8 8 8 8 8 8 8 8 8 8 8 9
11 11 11 11 11 11 10 10 10 9 9 9 9 9 9 9 8 8 8 8 8 8 8 8 8 8 8 8 8 8 8 9
10 10 10 10 10 10 10 10 9 9 8 8 8 8 8 8 8 8 8 8 8 8 8 8 8 8 8 8 8 8 8 8
9 9 9 10 10 10 10 9 9 9 8 8 8 8 8 8 8 8 7 7 7 8 8 8 8 8 8 7 8 8 8 8
9 9 9 9 9 9 9 9 9 8 8 8 8 8 8 8 7 7 8 7 7 7 7 7 7 7 7 7 7 7 8 8
10 10 9 9 9 9 9 9 9 8 8 8 8 8 8 8 8 7 7 7 7 8 7 7 7 7 7 7 7 7 7 7
9 9 9 9 9 9 9 8 9 9 9 8 8 8 7 8 8 8 7 7 7 7 7 7 6 6 6 7 6 6 7 7
8 8 9 9 9 9 8 8 7 7 8 9 9 8 8 8 7 7 7 7 7 7 7 7 7 6 6 6 6 6 5 6
8 8 8 8 9 9 9 8 7 6 6 6 7 7 7 5 6 6 6 6 6 6 7 7 7 7 7 6 6 5 5 5
8 8 7 8 8 8 8 8 8 7 7 5 5 5 6 4 4 4 4 6 5 5 6 6 6 6 7 6 6 6 5 5
7 7 7 7 7 7 8 8 7 6 6 6 6 5 5 5 5 4 4 5 5 5 4 4 5 6 5 6 6 6 6 5
6 6 6 6 6 6 6 6 6 6 6 6 6 6 5 5 5 5 4 3 3 3 3 4 4 4 4 4 5 5 5 5
5 5 5 5 5 5 5 5 6 6 6 5 5 5 4 4 4 4 4 4 4 4 4 3 3 4 4 4 3 3 4 4
5 5 5 5 5 5 5 5 5 5 5 5 5 5 5 4 4 4 4 5 5 5 4 3 3 3 3 3 2 3 3 3
4 5 5 6 5 5 5 5 5 5 5 5 5 5 5 5 4 4 4 4 4 4 4 3 3 3 2 2 2 2 3 3
4 5 5 5 5 4 4 4 4 4 4 4 4 4 3 3 3 2 1 1 1 1 2 2 1 1 2 2 2 2 1 1
4 4 4 4 4 4 4 4 4 4 3 3 2 1 1 -0 -1 -1 -1 -1 -1 -1 -0 0 0 0 1 1 1 1 1 0
5 5 4 4 3 3 3 3 3 2 2 2 1 -0 -1 -2 -2 -2 -3 -2 -2 -2 -2 -1 -1 -1 -0 -0 -0 -1 -1 -1
2 2 3 3 3 3 3 2 2 2 0 -1 -2 -2 -3 -3 -3 -3 -3 -3 -3 -3 -3 -3 -2 -2 -2 -2 -1 -1 -2 -2
Height
3175 3175 3176 3177 3177 3177 3178 3178 3178 3179 3179 3180 3180 3181 3181 3181 3182 3181 3181 3181 3181 3182 3182 3181 3181 3181 3180 3180 3180 3179 3178 3179
3175 3175 3175 3175 3175 3176 3176 3177 3177 3178 3179 3179 3180 3179 3179 3179 3179 3179 3179 3180 3180 3180 3180 3179 3180 3180 3179 3179 3178 3178 3177 3178
3173 3174 3174 3173 3173 3173 3173 3174 3174 3175 3175 3176 3176 3177 3177 3177 3177 3178 3178 3178 3179 3179 3178 3177 3177 3178 3178 3177 3176 3175 3175 3176
3170 3171 3171 3171 3170 3170 3170 3170 3171 3171 3172 3172 3172 3173 3173 3173 3174 3175 3176 3175 3175 3175 3176 3176 3175 3175 3174 3174 3174 3172 3172 3172
3166 3166 3167 3167 3167 3167 3167 3167 3168 3168 3168 3169 3169 3169 3169 3170 3171 3171 3171 3171 3172 3172 3171 3171 3171 3172 3172 3171 3170 3169 3169 3170
3161 3162 3162 3162 3161 3164 3163 3164 3164 3165 3165 3165 3165 3164 3165 3166 3167 3167 3167 3166 3166 3167 3167 3168 3167 3167 3168 3167 3166 3165 3166 3167
3155 3159 3159 3157 3157 3158 3159 3160 3161 3160 3160 3161 3162 3161 3161 3162 3161 3161 3162 3162 3163 3163 3162 3162 3162 3162 3163 3164 3163 3160 3160 3161
3151 3153 3157 3155 3155 3155 3156 3156 3156 3155 3155 3156 3156 3157 3156 3157 3157 3157 3157 3157 3157 3157 3157 3157 3158 3157 3156 3157 3158 3156 3154 3154
3146 3152 3153 3153 3152 3152 3150 3150 3150 3150 3150 3152 3152 3151 3152 3151 3150 3152 3153 3152 3152 3151 3150 3150 3151 3151 3151 3150 3151 3151 3148 3149
3146 3147 3148 3148 3148 3148 3147 3147 3147 3146 3145 3145 3146 3147 3145 3146 3145 3146 3146 3145 3144 3144 3144 3143 3143 3143 3143 3144 3143 3143 3142 3138
3142 3142 3143 3143 3144 3144 3144 3143 3143 3143 3142 3142 3142 3141 3141 3140 3140 3140 3140 3139 3138 3136 3136 3136 3134 3134 3135 3134 3134 3135 3134 3130
3139 3140 3139 3138 3138 3140 3140 3139 3139 3138 3138 3137 3136 3137 3137 3136 3134 3133 3133 3131 3131 3130 3129 3127 3126 3127 3126 3125 3126 3125 3125 3125
3136 3136 3136 3136 3136 3136 3136 3135 3135 3135 3135 3134 3132 3131 3130 3129 3128 3127 3126 3124 3123 3122 3120 3120 3119 3119 3118 3116 3115 3113 3113 3113
3131 3131 3132 3132 3132 3132 3132 3131 3131 3130 3130 3129 3127 3125 3124 3122 3120 3119 3118 3116 3115 3114 3113 3110 3109 3109 3105 3106 3102 3103 3100 3103
3128 3128 3128 3128 3128 3128 3127 3127 3125 3124 3122 3122 3121 3119 3116 3113 3112 3110 3108 3107 3105 3103 3102 3100 3098 3098 3098 3096 3092 3087 3091 3090
3122 3123 3124 3124 3123 3123 3122 3120 3119 3117 3115 3113 3111 3111 3108 3106 3103 3100 3098 3096 3094 3092 3091 3089 3088 3083 3083 3083 3082 3079 3078 3075
3116 3117 3118 3119 3118 3116 3114 3112 3110 3108 3106 3102 3099 3096 3093 3091 3089 3086 3084 3082 3080 3077 3076 3075 3073 3072 3071 3066 3068 3067 3064 3064
3111 3113 3114 3113 3111 3108 3104 3100 3098 3095 3093 3090 3088 3085 3081 3079 3077 3074 3072 3069 3067 3065 3063 3061 3060 3057 3056 3055 3055 3053 3050 3052
3107 3106 3103 3101 3098 3097 3095 3093 3088 3083 3080 3078 3076 3073 3071 3068 3067 3063 3062 3060 3057 3054 3052 3050 3047 3044 3043 3042 3041 3041 3043 3039
3096 3097 3098 3097 3095 3093 3089 3085 3081 3075 3070 3067 3063 3060 3058 3056 3054 3051 3048 3047 3046 3044 3042 3039 3037 3033 3031 3029 3028 3027 3028 3025
Wind_Speed
5 3 2 2 3 4 7 8 8 9 10 10 9 8 7 7 5 6 6 6 5 7 8 10 10 9 9 10 11 13 14 12
8 8 8 7 7 7 7 9 10 11 12 12 12 11 11 10 9 8 8 8 8 7 8 8 11 12 11 11 12 15 17 16
11 11 12 12 12 12 11 10 10 10 10 12 12 14 14 14 13 11 10 9 8 9 10 9 9 12 14 14 14 16 18 18
14 15 16 17 17 16 15 14 13 12 12 11 12 15 16 17 17 14 13 13 11 10 10 11 11 12 12 14 17 18 18 16
17 20 21 20 21 20 19 18 16 14 12 12 13 14 15 18 18 18 16 15 16 14 13 12 12 14 15 15 18 21 21 18
21 20 17 23 24 21 22 22 20 16 15 14 14 13 15 15 16 20 21 20 20 19 18 16 15 16 16 16 17 21 23 23
25 21 14 18 24 23 23 23 22 19 19 18 16 15 16 15 14 17 21 24 24 24 23 20 18 20 19 18 19 21 23 24
29 25 15 14 16 19 21 22 22 22 22 21 21 18 19 18 17 16 18 22 25 27 26 27 25 25 25 24 20 21 26 27
23 17 15 13 14 17 19 22 21 22 24 24 23 23 23 23 22 20 19 21 23 27 30 32 27 25 26 27 29 28 29 28
18 16 16 16 16 15 18 20 22 22 24 26 26 27 24 22 23 23 22 24 25 27 30 33 33 32 30 30 32 31 33 35
21 21 20 21 20 19 19 20 22 25 26 26 26 26 28 29 32 28 29 29 30 31 33 33 34 36 34 35 34 34 35 38
20 20 20 19 20 20 20 20 19 18 19 21 23 28 31 34 32 34 31 33 33 33 35 35 37 36 39 40 40 41 42 40
17 19 18 19 18 17 16 15 17 19 19 21 23 24 24 25 26 29 31 33 33 35 37 38 39 41 41 44 44 45 46 46
19 18 17 15 14 14 16 18 21 23 24 25 26 27 28 28 29 29 31 32 33 34 35 36 40 44 44 44 48 49 52 49
19 18 15 15 16 17 20 22 24 26 28 28 29 28 31 32 32 33 34 36 37 37 37 38 40 43 48 49 49 58 53 52
21 22 21 21 21 22 25 29 32 33 35 35 34 32 33 33 34 36 37 37 38 39 40 41 42 46 45 47 51 53 64 60
26 26 24 22 23 28 34 37 38 37 36 36 36 37 36 37 36 37 35 35 36 37 40 43 42 47 39 48 46 53 50 53
28 25 24 26 31 36 41 45 45 43 40 37 36 35 36 37 34 37 36 37 38 38 38 43 46 48 49 52 49 50 52 58
29 28 32 34 39 45 48 49 48 46 44 40 36 35 36 38 38 39 37 38 38 39 40 41 43 44 47 49 51 45 55 50
28 30 32 36 44 47 48 44 43 42 39 37 36 37 38 39 40 39 38 38 39 41 42 44 42 39 38 38 42 45 51 44
Wind_Direction
274 251 254 246 266 258 258 256 252 256 256 256 261 267 271 278 285 295 300 295 287 291 298 301 300 291 284 282 278 270 263 255
273 276 275 263 268 271 267 264 266 270 276 278 273 269 267 268 269 269 281 293 299 300 296 297 300 297 293 287 282 276 273 272
268 276 273 267 265 258 258 261 264 264 271 273 272 268 264 264 267 269 272 281 292 301 298 295 294 295 295 292 284 277 278 282
263 265 271 273 270 263 257 257 257 259 260 265 269 269 266 260 260 263 271 276 275 275 285 296 297 286 285 284 283 280 279 283
269 264 263 263 265 264 263 259 256 257 259 264 270 274 271 270 263 258 256 262 265 265 266 274 283 291 288 282 280 280 281 280
253 269 263 251 256 260 264 263 259 258 258 260 264 270 279 281 270 261 257 254 259 262 265 270 272 273 279 283 279 281 282 284
267 281 288 259 249 257 263 265 260 257 259 260 261 272 277 282 276 268 263 262 262 263 264 261 266 273 275 275 279 280 279 280
273 285 285 262 253 263 269 269 266 260 258 258 258 255 263 270 272 277 272 267 265 267 270 271 267 271 272 270 271 274 277 276
277 279 283 279 267 260 263 259 261 268 270 271 272 272 272 271 270 272 271 269 269 268 269 273 266 266 270 276 274 273 274 274
263 265 261 274 274 274 263 256 258 264 268 276 279 283 282 278 274 280 272 268 269 270 273 278 279 279 274 275 273 275 275 279
254 256 256 259 261 267 269 269 263 262 267 273 276 277 274 274 277 279 273 269 266 268 269 269 274 279 277 276 274 274 274 276
255 257 259 265 265 262 260 260 265 271 274 278 274 262 257 265 269 270 271 270 269 268 270 272 272 269 273 273 271 270 269 269
246 244 245 252 260 267 269 269 272 274 277 279 279 280 278 276 271 272 274 267 268 270 270 264 265 268 269 269 269 269 267 268
238 239 243 251 261 266 274 278 278 277 275 273 271 274 277 277 278 276 273 275 279 272 270 263 265 264 266 270 273 276 273 273
240 242 252 266 277 285 289 289 287 287 286 281 279 281 281 281 280 278 276 276 275 271 270 265 262 259 257 267 266 267 270 270
247 255 261 267 280 291 297 302 305 307 308 304 301 297 293 289 289 287 284 282 278 277 276 269 267 265 267 256 263 266 269 272
250 256 266 280 289 299 307 308 307 305 301 297 297 295 293 291 292 290 289 286 280 274 268 265 261 262 275 259 274 263 262 269
250 262 279 282 292 306 311 309 307 303 298 295 295 291 289 287 286 285 286 282 281 278 271 270 269 267 258 265 259 266 274 268
259 277 296 303 312 312 308 303 300 299 299 298 295 288 282 282 286 283 282 278 277 276 275 273 272 270 266 261 262 266 259 270
286 293 292 295 301 299 295 291 291 293 294 295 288 279 275 276 274 276 277 280 283 276 277 274 268 269 272 270 267 263 258 264